Flag for Cyprus Weather past 2 weeks in Kyrenia, Northern Cyprus, Cyprus

Now
50 °F

Passing clouds.


Feels Like: 47 °F
Forecast: 48 / 63 °F
Wind: 8 mph from West

Location: Ercan

Current Time: Mar 1, 2015 at 10:55:38 PM

Latest Report: Mar 1, 2015 at 10:20 PM


Visibility: N/A

Pressure: 30.01 "Hg

Humidity: 88%

Dew point: 46 °F

Location of KyreniaLocation

Historic Weather in Kyrenia — Graph

°F

Kyrenia temperature yesterday

Maximum temperature yesterday: 66 °F (at 11:50 AM)
Minimum temperature yesterday: 50 °F (at 12:20 AM)
Average temperature yesterday: 58 °F

Past Weeks' High & Low Weather Summary

 TemperatureHumidityPressure
High68 °F (Mar 1, 1:50 PM)100% (Feb 14, 9:20 PM)30.21 "Hg (Feb 14, 9:20 PM)
Low30 °F (Feb 20, 12:50 AM)31% (Feb 21, 12:50 PM)29.68 "Hg (Feb 20, 2:20 AM)
Average50 °F76%29.96 "Hg
* Reported Feb 14 9:20 PM — Mar 1 9:20 PM, Kyrenia, Weather by CustomWeather, © 2015

Note: Actual official high and low records may vary slightly from our data, if they occured in-between our weather recording intervals... More about our weather records

Advertising

Kyrenia weather history for previous 24 hours

 ConditionsComfort  
Time TempWeatherWind HumidityBarometerVisibility
9:20 PM
Sun, Mar 1
52 °FPassing clouds.7 mph88%30.01 "HgN/A
8:50 PM52 °FPassing clouds.6 mph88%30.01 "HgN/A
8:20 PM55 °FPassing clouds.8 mph82%30.01 "HgN/A
7:50 PM55 °FPartly cloudy.10 mph82%30.01 "HgN/A
7:20 PM57 °FPartly cloudy.10 mph77%30.01 "HgN/A
6:50 PM57 °FPartly cloudy.8 mph77%30.01 "HgN/A
6:20 PM59 °FPartly cloudy.9 mph72%29.98 "HgN/A
5:50 PM59 °FPartly cloudy.10 mph68%29.98 "HgN/A
5:20 PM59 °FPartly sunny.10 mph68%29.98 "HgN/A
4:50 PM59 °FScattered clouds.15 mph68%29.98 "HgN/A
4:20 PM61 °FScattered clouds.15 mph59%29.98 "HgN/A
3:50 PM63 °FScattered clouds.13 mph56%29.98 "HgN/A
3:20 PM63 °FScattered clouds.8 mph68%29.98 "HgN/A
2:50 PM64 °FScattered clouds.6 mph60%29.98 "HgN/A
2:20 PM66 °FScattered clouds.6 mph40%29.98 "HgN/A
1:50 PM68 °FScattered clouds.5 mph38%29.98 "HgN/A
1:20 PM66 °FScattered clouds.6 mph43%30.01 "HgN/A
12:50 PM66 °FScattered clouds.7 mph40%30.01 "HgN/A
12:20 PM66 °FPassing clouds.8 mph37%30.01 "HgN/A
11:50 AM66 °FPassing clouds.8 mph43%30.04 "HgN/A
11:20 AM64 °FPassing clouds.9 mph52%30.04 "HgN/A
10:50 AM64 °FPassing clouds.6 mph52%30.04 "HgN/A
10:20 AM63 °FPassing clouds.5 mph56%30.04 "HgN/A
9:50 AM61 °FPassing clouds.6 mph59%30.04 "HgN/A
9:20 AM59 °FPassing clouds.No wind59%30.04 "HgN/A
8:50 AM55 °FPassing clouds.5 mph72%30.04 "HgN/A
8:20 AM52 °FPassing clouds.6 mph82%30.04 "HgN/A
7:50 AM50 °FPassing clouds.7 mph82%30.04 "HgN/A
7:20 AM46 °FPassing clouds.7 mph87%30.04 "HgN/A
6:50 AM41 °FPassing clouds.10 mph93%30.04 "HgN/A
6:20 AM41 °FPassing clouds.9 mph87%30.04 "HgN/A
5:50 AM41 °FPassing clouds.9 mph87%30.04 "HgN/A
5:20 AM45 °FPassing clouds.8 mph87%30.01 "HgN/A
4:50 AM41 °FPassing clouds.7 mph87%30.04 "HgN/A
4:20 AM43 °FPassing clouds.8 mph93%30.01 "HgN/A
3:50 AM43 °FPassing clouds.9 mph87%30.01 "HgN/A
3:20 AM43 °FPassing clouds.9 mph93%30.01 "HgN/A
2:50 AM43 °FPassing clouds.9 mph93%30.01 "Hg5 mi
2:20 AM45 °FPassing clouds.8 mph87%30.01 "Hg5 mi
1:50 AM48 °FPassing clouds.8 mph87%30.04 "HgN/A
1:20 AM46 °FPassing clouds.8 mph93%30.04 "HgN/A
12:50 AM46 °FPassing clouds.9 mph93%30.04 "HgN/A
12:20 AM48 °FPassing clouds.6 mph87%30.04 "HgN/A
11:50 PM
Sat, Feb 28
50 °FPassing clouds.7 mph88%30.04 "HgN/A
11:20 PM50 °FPassing clouds.8 mph88%30.04 "HgN/A
10:50 PM50 °FPassing clouds.6 mph88%30.04 "HgN/A
10:20 PM50 °FPassing clouds.8 mph88%30.04 "HgN/A
Weather by CustomWeather, © 2015

See weather overviewHow to use our weather pages